Vertical_Velocity
-4 -3 4 -7 -0 -5 2 0 -1 0 -5 2 -3 -4 -2 -1 0 2 4 -1 -0 -1 -1 -1 -2 -5 -5 -2 -1 3 3 1 0 1 -0 1 0 6
-12 2 -2 0 0 -0 -2 -0 -2 1 -3 -4 -0 -6 -3 -4 -1 -1 -6 -8 -8 -3 -7 -8 -1 -2 -3 -2 -5 -4 3 5 2 -4 4 5 1 3
-2 -5 -0 1 -1 -2 0 -3 -0 -4 2 -0 -4 -3 2 1 -3 -2 1 -1 -5 -4 0 -4 -4 -2 0 -4 -4 -0 -2 -5 -7 -4 -6 -3 2 7
1 1 -1 1 -1 2 -2 -2 -4 -1 -2 -3 -0 1 -4 -7 0 -3 -9 -7 -4 3 -3 3 3 -2 -5 -3 -2 -5 -5 -5 -4 -3 -4 1 -1 -5
1 -0 3 -1 0 -1 -2 -4 -1 2 1 -1 1 -2 -0 -2 -6 -5 -3 0 0 -3 1 -2 -4 -4 -1 -2 -4 -3 -2 -2 1 -2 -0 1 2 2
-3 -4 -5 -4 4 -1 -2 -1 -2 -1 3 1 -4 -1 -1 -3 -3 -2 -1 1 -2 1 -6 -4 -4 -1 -3 -2 -1 0 -1 -2 -6 3 3 0 -2 1
-1 2 -1 -2 -3 -4 -3 0 -3 -3 -1 0 -1 -2 -2 -4 1 1 -1 1 -4 -6 -10 -3 -5 -8 -1 -1 1 -0 -1 -1 -1 1 6 3 6 2
-1 0 3 -2 -8 -0 1 -6 7 -1 -2 -1 -2 -2 4 3 -3 -5 6 -8 -12 -2 -5 -8 -2 -2 -2 -0 -0 -1 -0 2 1 -3 -2 -3 -3 -0
1 -4 -6 -3 -1 4 -10 6 -2 -2 2 2 -5 1 3 -2 -3 3 -5 -5 -3 -6 -3 -11 2 -2 3 -2 0 -1 0 -1 -2 -1 -2 -2 -2 -3
-5 -3 3 2 -2 3 7 -8 -5 5 -2 0 3 -2 -5 3 2 -2 -4 -4 -1 -3 3 -6 -5 -1 -2 -0 -2 -2 -1 -3 -2 -1 -1 -1 -1 -2
-6 -3 -5 3 4 4 -8 3 -0 1 -2 4 -4 -2 4 1 -2 -6 -4 -1 -9 -5 2 -1 -1 -15 -0 -2 -1 -2 -2 -1 -2 0 0 -0 -1 -2
-1 -3 10 11 -13 13 -9 0 -1 -1 -5 -1 4 2 -0 -3 -3 -1 0 -3 2 -4 4 -5 -2 3 -21 1 -4 -3 -2 -1 0 1 0 -0 -1 -4
5 4 2 10 -10 -7 -1 2 -3 -1 1 0 -1 -1 -3 -2 -1 1 3 3 1 0 3 6 -3 -2 3 -12 -3 0 1 -1 -0 -1 -0 -0 -0 -0
4 -3 -6 -5 -1 2 -1 -1 -0 -2 -2 -0 -1 -3 -5 -3 -1 0 1 2 3 0 -2 4 -2 3 5 -5 -4 -2 1 0 1 -2 -2 -1 -1 -0
3 3 2 1 -1 -3 -2 -3 -0 1 -2 -3 -3 -4 -3 -0 -3 -2 2 0 1 2 2 1 1 0 4 -1 -1 -7 -4 -3 3 -2 -1 -2 -2 -3
1 -0 -3 -4 -3 -3 -2 -0 -1 -2 -3 -4 -4 -2 -0 -1 -1 0 -2 -3 -3 -0 2 2 2 2 -4 3 3 -1 5 2 -5 -2 -2 -2 5 -2
-5 -6 -3 -1 1 0 -1 -1 -2 -3 -3 -2 1 1 -0 -2 0 -1 0 1 0 -5 -5 -0 2 2 3 1 -2 1 3 -1 -0 -2 -1 -3 1 0
-2 -0 0 -0 -1 -1 -0 -1 -2 -2 -1 1 1 -1 -0 -0 -1 -1 1 -0 -2 -1 -2 -2 -5 -7 -2 1 1 -1 3 -2 -0 -1 2 1 -0 1
0 0 0 -1 -2 -2 -3 -3 -1 1 1 0 -2 -1 -0 -1 -0 -0 -0 -1 0 1 0 1 -2 0 -2 -2 -1 1 3 -1 -2 -1 -0 2 -0 0
-1 -2 -2 -1 -1 -2 -2 -0 0 -0 -1 -1 -0 1 0 -0 -2 -0 -0 -0 -1 -0 -1 -2 0 1 2 -0 -3 1 2 -2 1 -1 -2 1 1 1
-1 -1 -1 -2 -1 -1 -1 -0 -1 -1 -1 -1 -0 -1 0 0 -1 -0 1 1 1 -0 -2 -1 2 3 1 0 -1 -0 3 2 0 0 -0 1 -1 -2
-0 -1 -2 -1 -1 0 -0 -0 -1 -1 0 0 -1 -1 1 1 -1 0 0 -1 0 -0 -1 1 0 -0 0 0 -1 -1 -2 1 1 1 2 2 3 0
-2 -1 1 0 -0 -1 -1 -1 -1 0 0 -1 -0 -1 1 -1 1 1 -1 1 -1 -1 0 -1 -0 1 -0 -1 -0 -1 -1 -2 -2 -1 2 1 0 0
Height
1531 1532 1532 1530 1531 1534 1534 1532 1532 1533 1530 1528 1524 1521 1517 1514 1509 1504 1499 1495 1491 1488 1483 1480 1477 1474 1472 1468 1464 1460 1456 1453 1450 1446 1442 1438 1435 1431
1528 1530 1530 1529 1529 1529 1530 1528 1530 1529 1528 1524 1521 1517 1513 1509 1504 1500 1494 1490 1486 1484 1479 1476 1474 1470 1467 1463 1459 1455 1451 1448 1445 1442 1438 1433 1430 1427
1527 1528 1529 1528 1527 1527 1527 1525 1526 1525 1524 1520 1517 1515 1510 1505 1500 1496 1491 1487 1483 1480 1474 1471 1468 1465 1460 1456 1453 1450 1447 1444 1441 1438 1434 1431 1427 1424
1526 1525 1526 1526 1526 1525 1523 1522 1522 1522 1519 1515 1514 1510 1505 1502 1497 1491 1487 1486 1481 1476 1470 1466 1462 1459 1455 1452 1449 1446 1442 1438 1435 1433 1430 1427 1423 1421
1524 1525 1524 1524 1524 1520 1519 1520 1520 1518 1515 1512 1508 1506 1503 1498 1495 1491 1486 1482 1477 1472 1467 1463 1458 1454 1451 1447 1444 1441 1438 1435 1432 1429 1427 1423 1419 1417
1521 1521 1523 1523 1521 1517 1517 1516 1517 1516 1512 1508 1506 1505 1500 1496 1493 1488 1482 1480 1475 1469 1465 1461 1455 1450 1447 1443 1440 1436 1433 1430 1428 1425 1422 1419 1416 1413
1521 1519 1518 1517 1516 1516 1515 1515 1511 1513 1511 1506 1502 1501 1498 1494 1491 1486 1481 1476 1472 1469 1464 1460 1453 1449 1445 1441 1437 1432 1429 1427 1425 1421 1418 1415 1413 1410
1518 1518 1516 1515 1514 1514 1513 1512 1508 1504 1504 1505 1503 1503 1498 1491 1487 1485 1480 1474 1471 1470 1463 1457 1454 1449 1444 1439 1433 1428 1425 1423 1420 1417 1414 1411 1409 1406
1517 1516 1516 1514 1513 1510 1507 1509 1506 1504 1500 1498 1497 1500 1494 1489 1486 1482 1478 1476 1473 1467 1463 1457 1453 1447 1442 1436 1431 1427 1423 1419 1415 1412 1409 1406 1404 1402
1517 1518 1516 1511 1508 1508 1505 1503 1507 1500 1499 1495 1492 1493 1491 1487 1483 1480 1477 1475 1470 1466 1463 1456 1451 1445 1438 1434 1430 1425 1421 1417 1413 1409 1406 1402 1399 1396
1510 1519 1515 1510 1504 1502 1506 1499 1502 1498 1496 1492 1492 1490 1488 1485 1481 1478 1476 1471 1467 1463 1460 1454 1449 1442 1436 1432 1428 1424 1420 1415 1411 1407 1403 1399 1395 1392
1508 1518 1511 1507 1499 1501 1500 1501 1496 1496 1492 1492 1490 1488 1485 1483 1480 1476 1473 1469 1465 1459 1457 1452 1447 1443 1435 1431 1427 1423 1418 1414 1409 1405 1401 1397 1393 1389
1508 1514 1507 1499 1500 1500 1500 1497 1495 1492 1491 1489 1487 1485 1483 1481 1478 1475 1471 1467 1463 1459 1455 1451 1445 1442 1438 1430 1424 1421 1418 1413 1408 1404 1400 1396 1392 1389
1508 1508 1504 1501 1499 1498 1495 1494 1493 1491 1489 1487 1485 1483 1482 1479 1476 1472 1468 1464 1460 1456 1452 1449 1444 1440 1436 1430 1425 1420 1416 1412 1407 1403 1399 1395 1391 1387
1506 1503 1500 1498 1496 1495 1494 1493 1491 1489 1487 1485 1484 1482 1480 1477 1473 1469 1465 1461 1457 1453 1450 1446 1442 1438 1434 1429 1424 1418 1413 1410 1407 1402 1397 1394 1390 1386
1502 1500 1498 1496 1494 1494 1492 1491 1489 1487 1486 1485 1483 1481 1478 1474 1470 1466 1461 1457 1453 1450 1447 1443 1439 1435 1430 1426 1422 1417 1414 1411 1405 1400 1396 1393 1389 1386
1499 1497 1496 1494 1493 1492 1490 1489 1487 1485 1484 1483 1481 1478 1475 1472 1468 1463 1459 1454 1450 1446 1442 1439 1435 1432 1428 1424 1419 1416 1413 1409 1404 1399 1395 1391 1388 1385
1496 1495 1494 1492 1491 1490 1488 1487 1486 1484 1483 1481 1479 1476 1473 1469 1465 1461 1457 1452 1448 1445 1441 1436 1432 1427 1424 1421 1418 1414 1411 1407 1402 1397 1394 1391 1387 1384
1495 1493 1492 1490 1488 1487 1486 1485 1483 1482 1480 1478 1476 1474 1471 1467 1464 1459 1455 1451 1447 1444 1440 1436 1431 1428 1423 1419 1417 1413 1409 1404 1400 1397 1394 1390 1387 1383
1492 1490 1488 1487 1485 1484 1483 1482 1480 1479 1477 1476 1474 1471 1468 1465 1461 1457 1453 1449 1446 1442 1438 1435 1432 1428 1424 1420 1415 1412 1409 1404 1400 1396 1393 1390 1387 1385
1489 1487 1485 1484 1482 1481 1480 1479 1478 1476 1475 1473 1471 1469 1466 1463 1460 1456 1452 1449 1445 1441 1437 1434 1431 1427 1423 1419 1416 1412 1409 1405 1401 1398 1395 1392 1389 1386
1485 1484 1482 1480 1479 1479 1478 1476 1475 1474 1472 1470 1468 1467 1465 1461 1458 1455 1451 1448 1444 1441 1437 1434 1430 1426 1423 1419 1415 1412 1408 1405 1401 1399 1396 1394 1391 1389
1482 1481 1479 1477 1476 1475 1475 1474 1473 1472 1470 1468 1466 1464 1463 1460 1457 1453 1450 1447 1443 1440 1436 1433 1430 1426 1423 1419 1416 1412 1408 1405 1401 1399 1396 1393 1391 1389